| time (UTC) | temp F | wind direction | speed MPH | gust MPH | rain 1hr in | rain 24hr in | rain mn in | humidity % | barometer mb |
| 20260902031601 | 65 | 0 | 0.0 | 1.0 | 0.00 | 0.71 | 0.65 | 97 | 1017.6 |
| 20260902024600 | 65 | 0 | 0.0 | 3.0 | 0.00 | 0.71 | 0.65 | 97 | 1017.4 |
| 20260902023108 | 65 | 0 | 0.0 | 0.0 | 0.00 | 0.71 | 0.65 | 97 | 1017.4 |
| 20260902021553 | 66 | 0 | 0.0 | 4.0 | 0.00 | 0.71 | 0.65 | 97 | 1017.2 |
| 20260902014556 | 66 | 0 | 0.0 | 1.0 | 0.00 | 0.71 | 0.65 | 98 | 1017.1 |
| 20260902013055 | 66 | 0 | 0.0 | 1.0 | 0.00 | 0.71 | 0.65 | 97 | 1016.4 |
| 20260902011549 | 67 | 0 | 0.0 | 1.0 | 0.00 | 0.71 | 0.65 | 97 | 1016.2 |
| 20260902010048 | 67 | 0 | 0.0 | 4.0 | 0.03 | 0.71 | 0.65 | 97 | 1016.0 |
| 20260902004601 | 68 | 0 | 1.0 | 9.0 | 0.03 | 0.71 | 0.65 | 96 | 1015.7 |
| 20260902003059 | 68 | 0 | 0.0 | 4.0 | 0.03 | 0.71 | 0.65 | 96 | 1015.8 |
| 20260902001603 | 70 | 0 | 1.0 | 8.0 | 0.03 | 0.71 | 0.65 | 95 | 1015.2 |
| 20260902000106 | 71 | 0 | 0.0 | 9.0 | 0.00 | 0.68 | 0.62 | 95 | 1015.0 |
| 20260901234557 | 72 | 0 | 0.0 | 6.0 | 0.00 | 0.68 | 0.62 | 95 | 1014.8 |
| 20260901233058 | 73 | 69 | 0.0 | 4.0 | 0.00 | 0.68 | 0.62 | 95 | 1014.8 |
| 20260901231554 | 74 | 0 | 0.0 | 2.0 | 0.00 | 0.68 | 0.62 | 95 | 1014.8 |
| 20260901224559 | 76 | 0 | 0.0 | 5.0 | 0.00 | 0.68 | 0.62 | 94 | 1014.4 |
| 20260901223056 | 77 | 0 | 0.0 | 2.0 | 0.00 | 0.68 | 0.62 | 93 | 1013.8 |
| 20260901221600 | 77 | 0 | 0.0 | 0.0 | 0.00 | 0.68 | 0.62 | 92 | 1013.9 |
| 20260901220056 | 77 | 0 | 0.0 | 1.0 | 0.00 | 0.68 | 0.62 | 91 | 1014.0 |
| 20260901214548 | 78 | 0 | 0.0 | 1.0 | 0.00 | 0.68 | 0.62 | 90 | 1014.0 |
| 20260901213055 | 79 | 0 | 0.0 | 1.0 | 0.00 | 0.68 | 0.62 | 89 | 1014.2 |
| 20260901211554 | 79 | 0 | 0.0 | 0.0 | 0.00 | 0.68 | 0.62 | 89 | 1014.2 |
| 20260901210100 | 79 | 0 | 0.0 | 0.0 | 0.00 | 0.68 | 0.62 | 90 | 1014.1 |
| 20260901204558 | 78 | 0 | 0.0 | 0.0 | 0.00 | 0.68 | 0.62 | 93 | 1014.1 |
| 20260901203103 | 77 | 0 | 0.0 | 0.0 | 0.00 | 0.68 | 0.62 | 93 | 1014.1 |
| 20260901201603 | 77 | 0 | 0.0 | 0.0 | 0.00 | 0.68 | 0.62 | 92 | 1014.1 |
| 20260901200100 | 78 | 0 | 0.0 | 0.0 | 0.00 | 0.68 | 0.62 | 89 | 1014.2 |
| 20260901194601 | 79 | 0 | 0.0 | 0.0 | 0.00 | 0.68 | 0.62 | 87 | 1014.3 |
| 20260901193054 | 0 | 0.0 | 0.0 | 0.00 | 0.68 | 0.62 | 1014.1 | ||
| 20260901191601 | 78 | 0 | 0.0 | 3.0 | 0.01 | 0.68 | 0.62 | 91 | 1014.2 |
| 20260901190048 | 77 | 0 | 0.0 | 5.0 | 0.01 | 0.68 | 0.62 | 90 | 1014.2 |
| 20260901184557 | 77 | 0 | 0.0 | 2.0 | 0.00 | 0.67 | 0.61 | 93 | 1014.3 |
| 20260901183054 | 76 | 0 | 0.0 | 4.0 | 0.00 | 0.67 | 0.61 | 95 | 1014.2 |
| 20260901181559 | 75 | 0 | 0.0 | 4.0 | 0.00 | 0.67 | 0.61 | 97 | 1014.3 |
| 20260901180058 | 75 | 0 | 0.0 | 1.0 | 0.01 | 0.67 | 0.61 | 99 | 1014.2 |
| 20260901174554 | 74 | 0 | 0.0 | 5.0 | 0.02 | 0.67 | 0.61 | 100 | 1014.2 |
| 20260901173100 | 74 | 168 | 1.0 | 6.0 | 0.03 | 0.67 | 0.61 | 100 | 1014.1 |
| 20260901171604 | 72 | 0 | 0.0 | 0.0 | 0.03 | 0.67 | 0.61 | 100 | 1014.4 |
| 20260901170052 | 72 | 0 | 0.0 | 1.0 | 0.01 | 0.65 | 0.58 | 100 | 1014.8 |
| 20260901164550 | 72 | 0 | 0.0 | 0.0 | 0.01 | 0.65 | 0.58 | 100 | 1014.5 |
| 20260901163059 | 72 | 0 | 0.0 | 0.0 | 0.02 | 0.64 | 0.58 | 100 | 1015.2 |
| 20260901161608 | 72 | 0 | 0.0 | 0.0 | 0.04 | 0.64 | 0.58 | 100 | 1015.2 |
| 20260901160108 | 72 | 0 | 0.0 | 1.0 | 0.06 | 0.64 | 0.58 | 100 | 1015.0 |
| 20260901154557 | 71 | 0 | 0.0 | 1.0 | 0.08 | 0.64 | 0.58 | 100 | 1015.3 |
| 20260901153100 | 71 | 0 | 0.0 | 1.0 | 0.07 | 0.62 | 0.56 | 100 | 1015.9 |
| 20260901151557 | 71 | 0 | 0.0 | 1.0 | 0.06 | 0.60 | 0.54 | 100 | 1016.1 |
| 20260901150049 | 71 | 0 | 0.0 | 3.0 | 0.04 | 0.57 | 0.51 | 100 | 1015.8 |
| 20260901144601 | 71 | 0 | 0.0 | 0.0 | 0.03 | 0.56 | 0.50 | 100 | 1015.8 |
| 20260901143100 | 71 | 0 | 0.0 | 0.0 | 0.02 | 0.55 | 0.49 | 100 | 1016.0 |
| 20260901141552 | 71 | 0 | 0.0 | 0.0 | 0.00 | 0.52 | 0.47 | 100 | 1015.9 |
| 20260901140049 | 71 | 0 | 0.0 | 0.0 | 0.00 | 0.52 | 0.47 | 100 | 1016.1 |
| 20260901134549 | 71 | 0 | 0.0 | 0.0 | 0.00 | 0.52 | 0.47 | 100 | 1015.8 |
| 20260901133059 | 71 | 0 | 0.0 | 0.0 | 0.00 | 0.52 | 0.47 | 100 | 1015.7 |
| 20260901131555 | 70 | 0 | 0.0 | 0.0 | 0.00 | 0.52 | 0.47 | 100 | 1015.7 |
| 20260901130059 | 70 | 0 | 0.0 | 0.0 | 0.00 | 0.52 | 0.47 | 100 | 1015.8 |
| 20260901124549 | 70 | 0 | 0.0 | 0.0 | 0.00 | 0.52 | 0.47 | 100 | 1015.9 |
| 20260901123058 | 70 | 0 | 0.0 | 0.0 | 0.00 | 0.52 | 0.47 | 100 | 1015.6 |
| 20260901121551 | 70 | 0 | 0.0 | 0.0 | 0.00 | 0.52 | 0.47 | 100 | 1015.7 |
| 20260901120050 | 70 | 0 | 0.0 | 0.0 | 0.00 | 0.52 | 0.47 | 100 | 1015.6 |
| 20260901114622 | 70 | 0 | 0.0 | 0.0 | 0.00 | 0.52 | 0.47 | 100 | 1015.9 |
| 20260901113057 | 69 | 0 | 0.0 | 0.0 | 0.00 | 0.52 | 0.47 | 100 | 1015.8 |
| 20260901111552 | 69 | 0 | 0.0 | 0.0 | 0.00 | 0.52 | 0.47 | 100 | 1015.6 |
| 20260901104557 | 69 | 0 | 0.0 | 0.0 | 0.00 | 0.52 | 0.47 | 100 | 1015.9 |
| 20260901103051 | 69 | 0 | 0.0 | 0.0 | 0.00 | 0.52 | 0.47 | 100 | 1016.1 |
| 20260901101553 | 69 | 0 | 0.0 | 0.0 | 0.00 | 0.52 | 0.47 | 100 | 1016.0 |
| 20260901100056 | 69 | 0 | 0.0 | 0.0 | 0.00 | 0.52 | 0.47 | 100 | 1015.6 |
| 20260901094550 | 69 | 0 | 0.0 | 0.0 | 0.00 | 0.52 | 0.47 | 100 | 1015.6 |
| 20260901093059 | 69 | 0 | 0.0 | 0.0 | 0.00 | 0.52 | 0.47 | 100 | 1015.7 |
| 20260901091549 | 69 | 0 | 0.0 | 0.0 | 0.00 | 0.52 | 0.47 | 100 | 1015.8 |
| 20260901090058 | 69 | 0 | 0.0 | 0.0 | 0.00 | 0.52 | 0.47 | 100 | 1015.8 |
| 20260901084604 | 69 | 0 | 0.0 | 0.0 | 0.00 | 0.52 | 0.47 | 100 | 1016.0 |
| 20260901083054 | 69 | 0 | 0.0 | 0.0 | 0.00 | 0.52 | 0.47 | 100 | 1016.1 |
| 20260901081548 | 69 | 0 | 0.0 | 0.0 | 0.00 | 0.52 | 0.47 | 100 | 1016.1 |
| 20260901080050 | 69 | 0 | 0.0 | 0.0 | 0.00 | 0.52 | 0.47 | 100 | 1016.2 |
| 20260901074558 | 69 | 0 | 0.0 | 1.0 | 0.00 | 0.52 | 0.47 | 100 | 1016.3 |
| 20260901073100 | 69 | 0 | 0.0 | 0.0 | 0.00 | 0.52 | 0.47 | 100 | 1016.3 |
| 20260901071549 | 68 | 0 | 0.0 | 0.0 | 0.00 | 0.52 | 0.47 | 100 | 1016.2 |
| 20260901070113 | 68 | 0 | 0.0 | 2.0 | 0.10 | 0.52 | 0.47 | 99 | 1016.4 |
| 20260901064557 | 68 | 0 | 0.0 | 1.0 | 0.12 | 0.52 | 0.47 | 99 | 1016.6 |
| 20260901063053 | 68 | 0 | 0.0 | 0.0 | 0.13 | 0.52 | 0.47 | 99 | 1016.7 |
| 20260901061603 | 68 | 0 | 0.0 | 0.0 | 0.13 | 0.52 | 0.47 | 99 | 1016.9 |
| 20260901060100 | 68 | 0 | 0.0 | 0.0 | 0.08 | 0.43 | 0.37 | 99 | 1017.2 |
| 20260901054559 | 68 | 0 | 0.0 | 0.0 | 0.19 | 0.41 | 0.35 | 99 | 1016.9 |
| 20260901053054 | 68 | 0 | 0.0 | 1.0 | 0.25 | 0.40 | 0.34 | 98 | 1017.0 |
| 20260901051559 | 68 | 0 | 0.0 | 0.0 | 0.29 | 0.40 | 0.34 | 98 | 1017.1 |
| 20260901050058 | 69 | 0 | 0.0 | 0.0 | 0.28 | 0.35 | 0.29 | 98 | 1017.3 |
| 20260901044557 | 69 | 0 | 0.0 | 0.0 | 0.21 | 0.22 | 0.16 | 97 | 1017.4 |
| 20260901043051 | 69 | 0 | 0.0 | 0.0 | 0.15 | 0.15 | 0.09 | 96 | 1017.6 |
| 20260901041550 | 69 | 0 | 0.0 | 0.0 | 0.11 | 0.11 | 0.05 | 95 | 1017.6 |
| 20260901040058 | 70 | 0 | 0.0 | 0.0 | 0.06 | 0.06 | 0.00 | 95 | 1017.6 |
| 20260901034553 | 70 | 0 | 0.0 | 0.0 | 0.01 | 0.01 | 0.01 | 94 | 1017.5 |
| 20260901033117 | 70 | 0 | 0.0 | 0.0 | 0.00 | 0.00 | 0.00 | 93 | 1017.5 |